Japan Airlines Virtual Airport Information Service

Ho Chi Minh City International Airport

ICAO: VVTS Country: Vietnam
Latitude: 10.8188 Longitude: 106.652
Latest Arrival : AFR477 (WSSS-VVTS) Latest Departure : AFR253 (VVTS-LFPG)


WX CaptureLIVE
Data provided by noaa.gov | Fetched at 15:50:24

METAR : VVTS 041530Z 02007KT 9999 FEW017 SCT050 23/15 Q1013 NOSIG

TAF : VVTS 041100Z 0412/0518 04006KT 9999 FEW020 SCT050


Runway Data for VVTS
Data provided by openaviationdata.com

Runway ID Mag Var Hdg Length Elevation Surface ILS Freq ILS Id ILS Slope
07L 0 69° 10026 ft 33 ft Concrete -- -- --
07R 0 69° 12396 ft 33 ft Concrete -- -- --
25L 0 249° 12396 ft 33 ft Concrete 108.3 SGN 3
25R 0 249° 10026 ft 33 ft Concrete 110.5 HCM 3

Ho Chi Minh City International Airport, Vietnam
Use only for reference purposes



Not for navigational purposes.